When you browse on this site, cookies collect data to enhance your experience and personalize the content and advertising you see.
Visit our Privacy Policy to learn more. By continuing to use the site, you agree to this use of cookies and data.
  • In France
  • List of Countries
  • For 7 days
  • Water Temperature
  • Weather Map
  • Weather Widgets
  • user-avatar
    Login

    Hourly Weather Cuiaba

    Today, 26 August, Monday

    Time Temperature Precipitation Wind Pressure Humidity
    00:00 +29°C° 0 mm 1 mps 741 mmHg 34%
    01:00 +29°C° 0 mm 1 mps 741 mmHg 34%
    02:00 +29°C° 0 mm 1 mps 741 mmHg 34%
    03:00 +28°C° 0 mm 1 mps 741 mmHg 36%
    04:00 +27°C° 0 mm 1 mps 741 mmHg 38%
    05:00 +26°C° 0 mm 1 mps 741 mmHg 40%
    06:00 +29°C° 0 mm 1 mps 741 mmHg 36%
    07:00 +31°C° 0 mm 1 mps 742 mmHg 32%
    08:00 +33°C° 0 mm 1 mps 743 mmHg 28%
    09:00 +36°C° 0 mm 1 mps 742 mmHg 24%
    10:00 +39°C° 0 mm 2 mps 742 mmHg 20%
    11:00 +42°C° 0 mm 2 mps 742 mmHg 16%
    12:00 +42°C° 0 mm 2 mps 741 mmHg 16%
    13:00 +42°C° 0 mm 2 mps 740 mmHg 16%
    14:00 +42°C° 0 mm 2 mps 739 mmHg 15%
    15:00 +41°C° 0 mm 2 mps 739 mmHg 16%
    16:00 +40°C° 0 mm 2 mps 739 mmHg 17%
    17:00 +39°C° 0 mm 2 mps 739 mmHg 18%
    18:00 +37°C° 0 mm 2 mps 739 mmHg 21%
    19:00 +35°C° 0 mm 2 mps 740 mmHg 23%
    20:00 +32°C° 0 mm 2 mps 740 mmHg 26%
    21:00 +32°C° 0 mm 2 mps 741 mmHg 27%
    22:00 +32°C° 0 mm 1 mps 741 mmHg 27%
    23:00 +31°C° 0 mm 1 mps 741 mmHg 28%

    Tomorrow, 27 August, Tuesday

    Time Temperature Precipitation Wind Pressure Humidity
    00:00 +31°C° 0 mm 1 mps 741 mmHg 29%
    01:00 +30°C° 0 mm 1 mps 741 mmHg 29%
    02:00 +30°C° 0 mm 1 mps 740 mmHg 29%
    03:00 +29°C° 0 mm 1 mps 740 mmHg 31%
    04:00 +28°C° 0 mm 1 mps 740 mmHg 33%
    05:00 +27°C° 0 mm 1 mps 740 mmHg 34%
    06:00 +29°C° 0 mm 1 mps 741 mmHg 31%
    07:00 +31°C° 0 mm 1 mps 742 mmHg 27%
    08:00 +33°C° 0 mm 1 mps 742 mmHg 24%
    09:00 +36°C° 0 mm 1 mps 742 mmHg 20%
    10:00 +40°C° 0 mm 1 mps 742 mmHg 17%
    11:00 +45°C° 0 mm 2 mps 742 mmHg 13%
    12:00 +43°C° 0 mm 2 mps 741 mmHg 14%
    13:00 +43°C° 0 mm 2 mps 741 mmHg 14%
    14:00 +42°C° 0 mm 2 mps 740 mmHg 14%
    15:00 +41°C° 0 mm 1 mps 739 mmHg 15%
    16:00 +39°C° 0 mm 1 mps 739 mmHg 17%
    17:00 +36°C° 0 mm 1 mps 739 mmHg 18%
    18:00 +35°C° 0 mm 1 mps 739 mmHg 19%
    19:00 +34°C° 0 mm 1 mps 740 mmHg 20%
    20:00 +33°C° 0 mm 1 mps 740 mmHg 21%
    21:00 +32°C° 0 mm 1 mps 740 mmHg 23%
    22:00 +31°C° 0 mm 1 mps 740 mmHg 24%
    23:00 +30°C° 0 mm 1 mps 741 mmHg 26%

    Day after tomorrow, 28 August, Wednesday

    Time Temperature Precipitation Wind Pressure Humidity
    00:00 +29°C° 0 mm 1 mps 740 mmHg 27%
    01:00 +28°C° 0 mm 1 mps 740 mmHg 28%
    02:00 +28°C° 0 mm 1 mps 740 mmHg 28%
    03:00 +27°C° 0 mm 1 mps 739 mmHg 30%
    04:00 +26°C° 0 mm 1 mps 739 mmHg 31%
    05:00 +26°C° 0 mm 1 mps 739 mmHg 33%
    06:00 +28°C° 0 mm 1 mps 740 mmHg 29%
    07:00 +31°C° 0 mm 1 mps 741 mmHg 25%
    08:00 +33°C° 0 mm 1 mps 741 mmHg 21%
    09:00 +37°C° 0 mm 2 mps 741 mmHg 18%
    10:00 +40°C° 0 mm 2 mps 741 mmHg 16%
    11:00 +42°C° 0 mm 2 mps 741 mmHg 13%
    12:00 +43°C° 0 mm 2 mps 740 mmHg 12%
    13:00 +43°C° 0 mm 2 mps 739 mmHg 12%
    14:00 +43°C° 0 mm 1 mps 738 mmHg 12%
    15:00 +42°C° 0 mm 1 mps 738 mmHg 13%
    16:00 +40°C° 0 mm 1 mps 738 mmHg 14%
    17:00 +39°C° 0 mm 1 mps 737 mmHg 15%
    18:00 +36°C° 0 mm 1 mps 738 mmHg 17%
    19:00 +35°C° 0 mm 2 mps 738 mmHg 19%
    20:00 +32°C° 0 mm 2 mps 738 mmHg 20%
    21:00 +31°C° 0 mm 1 mps 738 mmHg 22%
    22:00 +30°C° 0 mm 1 mps 739 mmHg 23%
    23:00 +29°C° 0 mm 1 mps 739 mmHg 24%

    29 August, Thursday

    Time Temperature Precipitation Wind Pressure Humidity
    00:00 +29°C° 0 mm 1 mps 738 mmHg 25%
    01:00 +28°C° 0 mm 1 mps 738 mmHg 26%
    02:00 +27°C° 0 mm 1 mps 737 mmHg 27%
    03:00 +27°C° 0 mm 1 mps 738 mmHg 27%
    04:00 +27°C° 0 mm 1 mps 738 mmHg 27%
    05:00 +27°C° 0 mm 1 mps 738 mmHg 27%
    06:00 +29°C° 0 mm 1 mps 738 mmHg 25%
    07:00 +30°C° 0 mm 1 mps 739 mmHg 23%
    08:00 +32°C° 0 mm 1 mps 739 mmHg 22%
    09:00 +36°C° 0 mm 2 mps 739 mmHg 19%
    10:00 +38°C° 0 mm 2 mps 739 mmHg 16%
    11:00 +42°C° 0 mm 3 mps 739 mmHg 14%
    12:00 +42°C° 0 mm 2 mps 738 mmHg 13%
    13:00 +43°C° 0 mm 2 mps 737 mmHg 12%
    14:00 +44°C° 0 mm 1 mps 737 mmHg 12%
    15:00 +42°C° 0 mm 1 mps 737 mmHg 13%
    16:00 +41°C° 0 mm 1 mps 736 mmHg 14%
    17:00 +40°C° 0 mm 1 mps 736 mmHg 15%
    18:00 +37°C° 0 mm 1 mps 737 mmHg 18%
    19:00 +35°C° 0 mm 1 mps 737 mmHg 20%
    20:00 +33°C° 0 mm 1 mps 738 mmHg 22%
    21:00 +32°C° 0 mm 1 mps 738 mmHg 23%
    22:00 +32°C° 0 mm 1 mps 738 mmHg 23%
    23:00 +31°C° 0 mm 1 mps 738 mmHg 24%

    30 August, Friday

    Time Temperature Precipitation Wind Pressure Humidity
    00:00 +31°C° 0 mm 1 mps 738 mmHg 24%
    01:00 +31°C° 0 mm 1 mps 738 mmHg 25%
    02:00 +31°C° 0 mm 1 mps 737 mmHg 25%
    03:00 +30°C° 0 mm 1 mps 738 mmHg 26%
    04:00 +30°C° 0 mm 1 mps 738 mmHg 28%
    05:00 +29°C° 0 mm 1 mps 738 mmHg 29%
    06:00 +31°C° 0 mm 2 mps 738 mmHg 26%
    07:00 +32°C° 0 mm 2 mps 739 mmHg 24%
    08:00 +35°C° 0 mm 2 mps 739 mmHg 22%
    09:00 +37°C° 0 mm 3 mps 739 mmHg 20%
    10:00 +39°C° 0 mm 3 mps 739 mmHg 18%
    11:00 +42°C° 0 mm 4 mps 739 mmHg 16%
    12:00 +42°C° 0 mm 3 mps 738 mmHg 15%
    13:00 +43°C° 0 mm 3 mps 738 mmHg 15%
    14:00 +43°C° 0 mm 2 mps 737 mmHg 14%
    15:00 +42°C° 0 mm 2 mps 737 mmHg 15%
    16:00 +41°C° 0 mm 2 mps 737 mmHg 15%
    17:00 +41°C° 0 mm 2 mps 736 mmHg 16%
    18:00 +38°C° 0 mm 2 mps 737 mmHg 19%
    19:00 +35°C° 0 mm 1 mps 737 mmHg 22%
    20:00 +32°C° 0 mm 1 mps 737 mmHg 25%
    21:00 +32°C° 0 mm 1 mps 738 mmHg 25%
    22:00 +32°C° 0 mm 1 mps 738 mmHg 25%
    23:00 +32°C° 0 mm 1 mps 738 mmHg 26%

    31 August, Saturday

    Time Temperature Precipitation Wind Pressure Humidity
    00:00 +31°C° 0 mm 1 mps 738 mmHg 27%
    01:00 +31°C° 0 mm 1 mps 737 mmHg 27%
    02:00 +31°C° 0 mm 1 mps 737 mmHg 28%
    03:00 +30°C° 0 mm 1 mps 737 mmHg 29%
    04:00 +30°C° 0 mm 1 mps 737 mmHg 30%
    05:00 +29°C° 0 mm 1 mps 738 mmHg 31%
    06:00 +31°C° 0 mm 1 mps 738 mmHg 29%
    07:00 +32°C° 0 mm 1 mps 739 mmHg 26%
    08:00 +34°C° 0 mm 1 mps 740 mmHg 24%
    09:00 +34°C° 0 mm 1 mps 740 mmHg 24%
    10:00 +34°C° 0 mm 1 mps 740 mmHg 24%
    11:00 +34°C° 0 mm 1 mps 740 mmHg 25%
    12:00 +36°C° 0 mm 1 mps 739 mmHg 22%
    13:00 +40°C° 0 mm 2 mps 738 mmHg 20%
    14:00 +42°C° 0 mm 2 mps 738 mmHg 18%
    15:00 +41°C° 0 mm 2 mps 738 mmHg 19%
    16:00 +40°C° 0 mm 1 mps 737 mmHg 19%
    17:00 +39°C° 0 mm 1 mps 737 mmHg 20%
    18:00 +36°C° 0 mm 1 mps 737 mmHg 24%
    19:00 +33°C° 0 mm 1 mps 738 mmHg 28%
    20:00 +31°C° 0 mm 2 mps 738 mmHg 32%
    21:00 +30°C° 0 mm 1 mps 738 mmHg 34%
    22:00 +29°C° 0 mm 1 mps 739 mmHg 36%
    23:00 +29°C° 0 mm 1 mps 739 mmHg 37%
    Show more